#timestamp,LO_Frequency,Hit 
1596409215.4,286047000.2,N
1596409235.3,286047000.5,N
1596409255.1,286047002.6,N
1596409256.0,286047002.6,N
1596409275.8,286047000.8,N
1596409295.7,286046999.7,N
1596409315.5,286047000.4,N
1596409335.3,286047002.2,N
1596409355.2,286047000.3,N
1596409375.9,286047000.4,N
1596409395.7,286047002.6,N
1596409415.6,286047000.0,N
1596409435.4,286047000.4,N
1596409455.2,286047002.8,N
1596409475.1,286047002.8,N
1596409476.0,286047002.8,N
1596409495.8,286046999.7,N
1596409515.6,286047000.3,N
1596409535.5,286047000.4,N
1596409555.3,286047002.1,N
1596409575.1,286047002.0,N
1596409595.9,286047000.4,N
1596409615.7,286047000.0,N
1596409635.5,286047000.1,N
1596409655.3,286047002.4,N
1596409675.2,286047002.7,N
1596409695.0,286047002.6,N
1596409695.9,286047002.6,N
1596409715.7,286047001.5,N
1596409735.6,286046999.8,N
1596409755.4,286047001.9,N
1596409775.2,286047000.1,N
1596409795.1,286047002.1,N
1596409796.0,286047002.1,N
1596409815.8,286046999.8,N
1596409835.6,286047002.2,N
1596409855.5,286047002.8,N
1596409875.3,286047002.1,N
1596409895.1,286047002.2,N
1596409915.9,286047002.4,N
1596409935.7,286047001.4,N
1596409955.5,286047002.0,N
1596409975.4,286047002.3,N
1596409995.2,286047002.2,N
1596410015.0,286047002.3,N
1596410015.9,286047002.3,N
1596410035.8,286047002.4,N
1596410055.6,286047002.0,N
1596410075.4,286047002.1,N
1596410095.3,286047002.6,N
1596410115.1,286047002.0,N
1596410135.8,286047002.2,N
1596410155.7,286047002.4,N
1596410175.5,286046999.7,N
1596410195.3,286047001.3,N
1596410215.2,286046999.9,N
1596410235.9,286047001.8,N
1596410255.7,286047002.0,N
1596410275.6,286047002.4,N
1596410295.4,286047002.7,N
1596410315.2,286047001.5,N
1596410335.1,286047002.6,P
1596410336.0,286047002.6,P
1596410355.8,286047001.2,P
1596410375.6,286047001.1,N
1596410395.5,286047000.6,N
1596410415.3,286047000.4,N
1596410435.1,286047000.7,N
1596410455.9,286046996.7,P
1596410475.7,286046997.7,N
1596410495.5,286046995.3,N
1596410515.4,286046996.9,N
1596410535.2,286046996.8,N
1596410555.0,286046997.4,N
1596410555.9,286046997.4,N
1596410575.8,286046997.1,N
1596410595.6,286046995.0,P
1596410615.4,286046998.7,N
1596410635.3,286047001.1,N
1596410655.1,286047000.0,N
1596410675.8,286046998.5,N
1596410695.7,286047000.9,N
1596410715.5,286046998.4,N
1596410735.3,286046998.3,N
1596410755.2,286046999.3,N
1596410775.9,286047001.2,N
1596410795.7,286046999.2,N
1596410815.6,286046998.3,N
1596410835.4,286046999.4,N
1596410855.2,286047000.8,N
1596410875.1,286046998.5,N
1596410876.0,286046998.5,N
1596410895.8,286046998.9,N
1596410915.6,286046998.4,N
1596410935.5,286046998.3,N
1596410955.3,286046999.0,N
1596410975.1,286046998.4,N
1596410995.9,286046998.9,N
1596411015.7,286046998.7,N
1596411035.5,286046998.3,N
1596411055.4,286046999.0,N
1596411075.2,286046999.5,N
1596411095.0,286046996.5,N
1596411095.9,286046996.5,N
1596411115.8,286046998.3,N
1596411135.6,286046999.0,N
1596411155.4,286046999.0,N
1596411175.3,286046999.1,N
1596411195.1,286046996.5,P
1596411196.0,286046996.5,N
1596411215.8,286046998.5,N
1596411235.7,286047001.2,N
1596411255.5,286047001.0,N
1596411275.3,286047001.0,N
1596411295.2,286046999.3,N
1596411315.9,286046998.6,N
1596411335.7,286047001.2,N
1596411355.6,286047000.9,N
1596411375.4,286046998.7,N
1596411395.2,286046998.6,N
1596411415.1,286047000.7,N
1596411416.0,286047000.7,N
1596411435.8,286047001.1,N
1596411455.6,286047000.3,N
1596411475.5,286047000.7,N
1596411495.3,286046999.8,N
1596411515.1,286047000.8,N
1596411535.9,286046998.5,N
1596411555.7,286047000.0,N
1596411575.5,286047000.8,N
1596411595.4,286047000.2,N
1596411615.2,286047000.9,N
1596411635.0,286047001.0,N
1596411635.9,286047001.0,N
1596411655.8,286046998.1,N
1596411675.6,286047002.7,N
1596411695.4,286046999.7,N
1596411715.3,286047002.6,N
1596411735.1,286047000.9,N
1596411736.0,286047000.9,N
1596411755.8,286047000.5,N
1596411775.7,286046999.9,N
1596411795.5,286047002.3,N
1596411815.3,286047000.9,N
1596411835.2,286047000.6,N
1596411855.9,286046999.7,N
1596411875.7,286047002.8,N
1596411895.6,286047001.0,N
1596411915.4,286047000.0,N
1596411935.2,286046999.7,N
1596411955.1,286047000.6,N
1596411956.0,286047000.6,N
1596411975.8,286047000.2,N
1596411995.6,286047000.0,N
1596412015.5,286047002.2,N
1596412035.3,286047002.4,N
1596412055.1,286046999.7,N
1596412075.9,286047002.4,N
1596412095.7,286046999.7,N
1596412115.5,286047000.0,N
1596412135.3,286047000.4,N
1596412155.2,286047001.0,N
1596412175.0,286047000.1,N
1596412175.9,286047000.1,N
1596412195.7,286047002.3,N
1596412215.6,286047000.2,N
1596412235.4,286047001.0,N
1596412255.2,286047002.4,N
1596412275.1,286047000.0,N
1596412276.0,286047000.0,N
1596412295.8,286047000.2,N
1596412315.6,286047000.2,N
1596412335.5,286047002.8,N
1596412355.3,286047000.1,N
1596412375.1,286047002.7,N
1596412395.9,286047001.5,N
1596412415.7,286047002.4,N
1596412435.5,286047001.6,N
1596412455.4,286047002.6,N
1596412475.2,286046999.7,N
1596412495.0,286047001.6,N
1596412495.9,286047001.6,N
1596412515.8,286047002.5,N
1596412535.6,286047002.0,N
1596412555.4,286047002.0,N
1596412575.3,286047001.5,N
1596412595.1,286047002.0,N
1596412596.0,286047002.0,N
1596412615.8,286047001.7,N
1596412635.7,286047002.0,N
1596412655.5,286047001.4,N
1596412675.3,286047002.5,N
1596412695.2,286047001.5,N
1596412715.9,286047002.5,N
1596412735.7,286047001.4,N
1596412755.6,286047002.5,N
1596412775.4,286047001.4,N
1596412795.2,286047001.9,N
